Showing default

KUIPER-00253, 68584

Orbit data source: Space-Track

KUIPER-00253, 68584 is a payload satellite owned by Kuiper Systems (US) in LEO that was launched on Sat, 04 Apr 2026 UTC via an ATLAS V 551 launch vehicle from the Air Force Eastern Test Range (AFETR). Payload-class satellites include a variety of spacecraft equipped with specific instruments for various scientific and technological missions. These include communications satellites like Starlink; space stations such as the ISS; scientific satellites like the Hubble; Earth observation satellites from companies like Planet Labs, Umbra, and HawkEye 360; GPS; miniature CubeSats for education and research; and military/defense satellites.

Loading next visibility...
Identifier
68584, 2026-072M
Orbit
LEO
Country
Flag of USUS
Related business
Manufacturer
Kuiper Systems
Mission
Operational spacecraft
Bus & Motor
KUIPER, Unknown motor
Mass
~490 kg wet, ~490 kg dry
Launch date (UTC)
2026-04-04 (2 months ago)
Launch vehicle
ATLAS V 551
Launch site
Air Force Eastern Test Range (AFETR)
Object type
Payload
Rocket body
Debris
Shape & HBR
Unknown shape, 3.4 m
Radar Cross Section
Large (>1 m²)

Expand to show TLE details & history
Last TLE update: 1 week ago

TLE from 1 week ago
0 KUIPER-00253
1 68584U 26072M   26155.25004630  .00011314  00000-0  83939-3 0  9992
2 68584  51.8888 241.5594 0006728   0.6652 212.7618 15.03471651  5929
Epoch: 2026-06-04T06:00Z
TLE epoch observation values (Epoch: 2026-06-04T06:00:04.000Z)
Latitude
-25.84839°
Longitude
101.052°
Altitude
567.566 km
Speed
7.575 km/s
True Right ascension
05h 35m 03s
True Declination
-25° 42' 36"
Sunlit
Object was in daylight at epoch
Visualization orbit readout
Latitude
Unknown
Longitude
Unknown
Altitude
Unknown
Speed
Unknown
Apparent Right ascension
Unknown
Apparent Declination
Unknown
Sunlit
N/A
Visualization observer readout
Local Sidereal Time
03:29:13
Azimuth
Unknown
Elevation
Unknown
Doppler factor
Unknown
Orbital elements
Apogee altitude
561.324 km
Perigee altitude
551.993 km
Semi-major axis
6,934.796 km
Eccentricity
0.00067
Inclination
51.8888°
RAAN
241.5594°
Arg. of periapsis
0.6652°
True anomaly
212.72011°
Mean anomaly
212.7618°
Eccentric anomaly
212.74095°
Mean motion
3.75831 °/min
Orbital period
95.79 mins
BSTAR
0.00083939
Loading maneuver chart data...
Computing Atmospheric mass density...
Loading historical data...
Loading historical data...
Loading historical data...
Loading historical data...
Loading historical data...
Loading historical data...
Loading historical data...

Documentation

Showing up to 5 results
|